AKST,Max TemperatureF,Mean TemperatureF,Min TemperatureF,Max Dew PointF,MeanDew PointF,Min DewpointF,Max Humidity, Mean Humidity, Min Humidity, Max Sea Level PressureIn, Mean Sea Level PressureIn, Min Sea Level PressureIn, Max VisibilityMiles, Mean VisibilityMiles, Min VisibilityMiles, Max Wind SpeedMPH, Mean Wind SpeedMPH, Max Gust SpeedMPH,PrecipitationIn, CloudCover, Events, WindDirDegrees
2012-11-1,28,22,15,25,20,10,0,0,0,30.44,30.15,30.00,9,2,0,33,24,39,0.08,8,Snow,283
2012-11-2,17,14,11,11,6,1,82,0,62,30.31,30.27,30.17,10,4,1,24,14,29,0.02,8,Snow,4
2012-11-3,11,4,-4,9,3,-7,92,0,72,30.30,30.26,30.13,10,7,1,17,7,21,0.02,7,Snow,112
2012-11-4,18,7,-5,14,5,-9,0,0,0,30.12,30.00,29.95,10,4,0,21,14,24,0.06,8,Fog-Snow,285
2012-11-5,16,3,-10,10,3,-13,92,0,58,30.21,30.16,30.07,10,5,1,13,9,16,0.05,7,Snow,282
2012-11-6,26,8,-11,24,13,-15,0,0,0,30.18,30.07,30.01,10,3,1,32,18,38,0.10,7,Snow,220
2012-11-7,26,20,13,23,17,8,0,0,0,30.38,30.21,30.09,10,5,2,20,9,22,0.05,8,Snow,309
2012-11-8,29,22,15,25,19,10,0,0,0,30.36,30.26,30.19,10,9,5,20,14,23,T,8,Snow,209
2012-11-9,29,22,15,27,18,8,0,0,0,30.19,30.09,29.92,10,7,2,21,13,24,0.02,7,Snow,306
2012-11-10,26,21,15,25,19,9,0,0,0,30.05,29.93,29.88,10,7,2,21,13,24,T,8,Snow,340
2012-11-11,17,11,4,12,9,2,0,0,0,30.22,30.17,30.06,9,7,3,17,7,21,0.01,8,Snow,88
2012-11-12,19,13,7,16,10,3,0,0,0,30.26,30.06,29.95,10,5,0,28,19,35,0.03,7,Snow,283
2012-11-13,14,8,2,9,5,-4,0,0,0,30.27,30.12,30.06,10,6,0,31,20,39,T,6,Snow,310
2012-11-14,10,6,1,6,0,-5,0,0,0,30.29,30.24,30.19,10,7,3,17,11,21,T,7,Snow,322
2012-11-15,11,8,4,8,3,1,0,0,0,30.40,30.25,30.18,10,6,1,18,14,22,T,8,Snow,320
2012-11-16,7,4,1,3,1,-1,0,0,0,30.51,30.47,30.42,10,7,1,8,4,9,T,8,Snow,175
2012-11-17,7,4,1,3,0,-2,0,0,0,30.45,30.38,30.32,10,6,0,12,4,13,T,8,Fog-Snow,349
2012-11-18,6,4,1,2,0,-2,0,0,0,30.54,30.43,30.33,10,9,6,8,4,10,T,8,Snow,68
2012-11-19,7,-4,-15,0,-7,-18,0,0,0,30.58,30.53,30.48,10,7,1,15,5,17,T,5,Snow,173
2012-11-20,1,-6,-12,-4,-8,-15,0,0,0,30.50,30.41,30.36,10,8,2,22,8,24,T,7,Snow,153
2012-11-21,4,3,1,0,-1,-2,0,0,0,30.57,30.48,30.42,10,7,2,12,3,13,T,8,Snow,146
2012-11-22,2,-7,-16,-1,-8,-19,0,0,0,30.63,30.59,30.55,10,9,4,14,8,16,T,6,Snow,145
2012-11-23,-2,-8,-14,-6,-11,-17,92,0,77,30.55,30.48,30.40,10,8,0,12,6,13,T,6,Fog-Snow,146
2012-11-24,3,-5,-13,-1,-11,-17,0,0,0,30.40,30.35,30.32,10,9,1,10,4,9,0.00,3,Fog,186
2012-11-25,9,2,-5,5,-1,-6,0,0,0,30.43,30.37,30.21,10,9,1,13,6,15,0.00,5,,175
2012-11-26,13,3,-8,9,-1,-12,0,0,0,30.51,30.38,30.22,10,9,1,23,13,26,T,4,Snow,17
2012-11-27,-7,-11,-14,-11,-13,-16,0,0,0,30.62,30.58,30.53,10,10,7,13,9,15,0.00,1,,75
2012-11-28,8,-2,-11,4,-1,-15,0,0,0,30.58,30.46,30.40,10,5,0,18,13,23,T,6,Fog-Snow,305
2012-11-29,11,9,7,9,6,3,0,0,0,30.44,30.41,30.32,10,9,7,16,7,20,T,8,Snow,309
2012-11-30,9,6,2,5,2,-2,0,0,0,30.33,30.18,30.05,10,6,2,14,6,15,0.02,8,Snow,213